Location: Newark
(28.1667°N, 17.3333°W)
Time: 20:53:29
(UTC+00:00)

N. Korean satellite - Visible Passes

Search period start: 21 October 2019 00:00
Search period end: 31 October 2019 00:00
Orbit: 455 x 508 km, 97.2° (Epoch: 20 October)

Date Brightness Start Highest point End Pass type
(mag) Time Alt. Az. Time Alt. Az. Time Alt. Az.
21 Oct 10.2 06:03:57 10° ENE 06:05:51 14° E 06:07:46 10° SE visible
22 Oct 9.9 19:13:39 10° SW 19:15:53 16° W 19:18:07 10° NW visible
23 Oct 7.4 06:45:06 10° NNE 06:48:43 58° E 06:52:21 10° S visible
24 Oct 9.3 06:20:22 10° NE 06:23:24 24° E 06:26:26 10° SSE visible
25 Oct 10.5 05:57:06 10° E 05:57:59 11° E 05:58:53 10° ESE visible
26 Oct 9.5 19:05:19 10° SSW 19:07:58 21° W 19:10:38 10° NW visible
27 Oct 8.0 06:37:19 10° NNE 06:40:52 44° E 06:44:24 10° S visible
28 Oct 9.8 06:12:48 10° NE 06:15:30 19° E 06:18:12 10° SE visible
29 Oct 10.2 19:24:06 10° WSW 19:25:26 12° W 19:26:46 10° WNW visible
30 Oct 6.8 06:54:35 10° NNE 06:58:17 84° E 07:02:00 10° S visible
30 Oct 9.0 18:57:02 10° SSW 19:00:00 27° W 19:03:01 10° NW visible
